Location: Mohawk View
(42.7837°N, 73.7885°W)
Time: 00:37:47
(UTC+00:00)

Meteor 1-4 Rocket - Pass Details

Date: 17 June 2021
Orbit: 447 x 499 km, 81.2° (Epoch: 02 August)

Event Time Altitude Azimuth Distance (km) Brightness Sun altitude
Rises 04:22:56 0° 360° (N) 2,488 7.6 -23.4°
Reaches altitude 10° 04:25:13 10° 12° (NNE) 1,601 6.1 -23.4°
Enters shadow 04:27:51 28° 58° (ENE) 880 4.0 -23.5°
